Content
SEND FEEDBACK

Daily
Averages
Monthly
Summary
United States of America

CYPRESS MILL, TEXAS


Home > North America > United States > Texas
Elevation: 920 feet     Latitude: 30 23N     Longitude: 098 15W

WEATHER
 
SELECT A DAY
Number of Records: 119,322;   Date Range: 6/5/09 - 7/27/14
 
SHARE

PRINT THIS DATA

[ ← Previous Day ]
WEATHER ALMANAC - JANUARY 30, 2013
[ Next Day → ]
[ °C ]   °F
Weather ElementAverageHighLow
Temperature47.3 °F55.4 °F (1:55 pm)35.6 °F (7:55 pm)
Dewpoint18.8 °F28.4 °F (6:15 am)12.2 °F (2:35 pm)
Humidity34.4 %57 % (6:15 am)18 % (2:35 pm)
Barometer30.06 in30.20 in (10:15 pm)29.81 in (12:35 am)
Wind Speed10.4 mph21.9 mph (5:55 am)
Wind Gust31.1 mph (5:35 am)
Weather ElementAverage
Visibility9.8 mi
Wind DirectionW (269.7 °)

Weather ElementTotal
Precipitation---
Heating Degree Days19.5 (Base 65)
Averaged from 70 records on January 30, 2013
WEATHER CONDITIONS BREAKOUT
WIND DIRECTION BREAKOUT
WEATHER BY HOUR - JANUARY 30, 2013
[ °C ]   °F
Local TimeTemperatureDewpointHumidityBarometerVisibilityWind DirectionWind SpeedGust SpeedPrecipitationEventsConditions
12:35 AM51.8 °F17.6 °F26 %29.81 in7.0 miWNW (300°)10.4 mph16.1 mphOvercast
12:55 AM51.8 °F17.6 °F26 %29.82 in7.0 miWNW (290°)8.1 mphOvercast
1:15 AM51.8 °F17.6 °F26 %29.82 in7.0 miWNW (300°)12.7 mph18.4 mphOvercast
1:35 AM51.8 °F19.4 °F28 %29.83 in7.0 miWNW (300°)8.1 mphOvercast
1:55 AM51.8 °F17.6 °F26 %29.83 in7.0 miWNW (300°)12.7 mph21.9 mphOvercast
2:15 AM51.8 °F17.6 °F26 %29.83 in10.0 miWNW (300°)9.2 mph19.6 mphMostly Cloudy
2:35 AM51.8 °F17.6 °F26 %29.85 in10.0 miNW (310°)13.8 mph23.0 mphScattered Clouds
2:55 AM50.0 °F17.6 °F28 %29.86 in10.0 miWNW (300°)8.1 mph20.7 mphClear
3:15 AM50.0 °F17.6 °F28 %29.86 in10.0 miWNW (300°)13.8 mph21.9 mphClear
3:35 AM50.0 °F17.6 °F28 %29.88 in10.0 miWNW (290°)12.7 mph23.0 mphClear
3:55 AM50.0 °F17.6 °F28 %29.88 in10.0 miWNW (290°)15.0 mph23.0 mphClear
4:15 AM50.0 °F15.8 °F26 %29.88 in10.0 miWNW (300°)9.2 mph18.4 mphClear
4:35 AM48.2 °F17.6 °F30 %29.88 in10.0 miWNW (300°)9.2 mph16.1 mphClear
4:55 AM48.2 °F17.6 °F30 %29.92 in10.0 miWNW (300°)15.0 mph25.3 mphClear
5:15 AM46.4 °F19.4 °F34 %29.92 in10.0 miWNW (300°)10.4 mph23.0 mphClear
5:35 AM46.4 °F19.4 °F34 %29.95 in10.0 miWNW (300°)17.3 mph31.1 mphClear
5:55 AM44.6 °F24.8 °F46 %29.96 in10.0 miNW (320°)21.9 mph29.9 mphClear
6:15 AM42.8 °F28.4 °F57 %29.99 in10.0 miNW (310°)11.5 mph20.7 mphClear
6:35 AM42.8 °F28.4 °F57 %30.00 in10.0 miNW (310°)13.8 mph19.6 mphClear
6:55 AM42.8 °F28.4 °F57 %30.03 in10.0 miWNW (300°)11.5 mph24.2 mphClear
7:15 AM42.8 °F28.4 °F57 %30.06 in10.0 miWNW (290°)13.8 mph19.6 mphClear
7:35 AM42.8 °F28.4 °F57 %30.06 in10.0 miNW (310°)12.7 mph18.4 mphClear
7:55 AM44.6 °F26.6 °F49 %30.07 in10.0 miNW (310°)16.1 mph25.3 mphClear
8:15 AM44.6 °F26.6 °F49 %30.09 in10.0 miWNW (300°)13.8 mph27.6 mphClear
8:35 AM44.6 °F24.8 °F46 %30.10 in10.0 miWNW (300°)10.4 mph26.5 mphClear
8:55 AM46.4 °F23.0 °F40 %30.11 in10.0 miWNW (300°)15.0 mph27.6 mphClear
9:15 AM46.4 °F23.0 °F40 %30.11 in10.0 miWNW (300°)16.1 mph26.5 mphClear
9:35 AM48.2 °F23.0 °F37 %30.12 in10.0 miNW (310°)15.0 mph25.3 mphClear
9:55 AM50.0 °F23.0 °F35 %30.12 in10.0 miNW (310°)17.3 mph27.6 mphClear
10:15 AM50.0 °F21.2 °F32 %30.12 in10.0 miWNW (300°)16.1 mph24.2 mphClear
10:35 AM50.0 °F21.2 °F32 %30.13 in10.0 miNNW (330°)18.4 mph29.9 mphClear
10:55 AM51.8 °F21.2 °F30 %30.13 in10.0 miNW (310°)15.0 mph21.9 mphClear
11:15 AM51.8 °F21.2 °F30 %30.12 in10.0 miNW (310°)13.8 mph24.2 mphClear
11:35 AM53.6 °F19.4 °F26 %30.12 in10.0 miNNW (330°)16.1 mph25.3 mphClear
11:55 AM51.8 °F19.4 °F28 %30.12 in10.0 miNNW (330°)17.3 mph27.6 mphClear
12:15 PM53.6 °F19.4 °F26 %30.11 in10.0 miNNW (340°)15.0 mph23.0 mphClear
12:35 PM53.6 °F17.6 °F24 %30.11 in10.0 miNNW (330°)17.3 mph26.5 mphClear
12:55 PM53.6 °F19.4 °F26 %30.10 in10.0 miNW (310°)10.4 mph24.2 mphClear
1:15 PM53.6 °F19.4 °F26 %30.10 in10.0 miWNW (300°)12.7 mph23.0 mphClear
1:35 PM53.6 °F17.6 °F24 %30.10 in10.0 miWNW (300°)8.1 mph21.9 mphClear
1:55 PM55.4 °F17.6 °F23 %30.11 in10.0 miNW (320°)11.5 mph20.7 mphClear
2:15 PM55.4 °F17.6 °F23 %30.11 in10.0 miWNW (300°)12.7 mph19.6 mphClear
2:35 PM55.4 °F12.2 °F18 %30.12 in10.0 miNW (310°)16.1 mph23.0 mphClear
2:55 PM55.4 °F14.0 °F20 %30.10 in10.0 miNW (320°)12.7 mph21.9 mphClear
3:15 PM55.4 °F12.2 °F18 %30.10 in10.0 miNW (310°)13.8 mph26.5 mphClear
3:35 PM55.4 °F12.2 °F18 %30.10 in10.0 miNNW (330°)11.5 mph18.4 mphClear
3:55 PM53.6 °F12.2 °F19 %30.12 in10.0 miWNW (290°)10.4 mph19.6 mphClear
4:15 PM53.6 °F12.2 °F19 %30.12 in10.0 miNW (320°)11.5 mph19.6 mphClear
4:35 PM53.6 °F12.2 °F19 %30.12 in10.0 miNW (320°)9.2 mph17.3 mphClear
4:55 PM53.6 °F12.2 °F19 %30.13 in10.0 miNNW (330°)8.1 mphClear
5:15 PM51.8 °F12.2 °F21 %30.13 in10.0 miNW (320°)10.4 mphClear
5:35 PM50.0 °F12.2 °F22 %30.13 in10.0 miNW (320°)5.8 mphClear
5:55 PM50.0 °F12.2 °F22 %30.15 in10.0 miNW (320°)8.1 mphClear
6:15 PM50.0 °F12.2 °F22 %30.15 in10.0 miNW (320°)6.9 mphClear
6:35 PM48.2 °F14.0 °F25 %30.15 in10.0 miNNW (330°)4.6 mphClear
6:55 PM44.6 °F15.8 °F31 %30.16 in10.0 miCalmClear
7:15 PM39.2 °F15.8 °F39 %30.16 in10.0 miCalmClear
7:35 PM37.4 °F17.6 °F45 %30.17 in10.0 miCalmClear
7:55 PM35.6 °F19.4 °F52 %30.17 in10.0 miSouth (190°)4.6 mphClear
8:15 PM35.6 °F17.6 °F48 %30.17 in10.0 miSouth (180°)3.5 mphClear
8:35 PM35.6 °F19.4 °F52 %30.17 in10.0 miSouth (190°)4.6 mphClear
8:55 PM35.6 °F19.4 °F52 %30.18 in10.0 miSouth (190°)3.5 mphClear
9:15 PM35.6 °F19.4 °F52 %30.18 in10.0 miSouth (190°)3.5 mphClear
9:35 PM37.4 °F17.6 °F45 %30.19 in10.0 miSouth (190°)4.6 mphClear
10:15 PM37.4 °F19.4 °F48 %30.20 in10.0 miSouth (180°)3.5 mphClear
10:35 PM35.6 °F19.4 °F52 %30.20 in10.0 miCalmClear
10:55 PM35.6 °F19.4 °F52 %30.20 in10.0 miSouth (190°)3.5 mphClear
11:15 PM35.6 °F19.4 °F52 %30.20 in10.0 miCalmClear
11:35 PM35.6 °F19.4 °F52 %30.20 in10.0 miSouth (190°)3.5 mphClear
11:55 PM37.4 °F19.4 °F48 %30.20 in10.0 miSouth (190°)3.5 mphClear
Hourly data recorded from KDZB, located miles away from Cypress Mill, Texas







STORIES FROM OUR PARTNERS